• In Deutschland
  • Länderverzeichnis
  • Für 7 Tage
  • Wassertemperatur
  • Satellitenkarten
  • Wetterkarte
  • Widgets
  • user-avatar
    Anmelden

    Stündliche Wetter Baotou

    Heute, 22 April, Sonntag

    Zeit Temperatur Niederschläge Wind Luftdruck Luftfeuchtigkeit
    00:00 +16°C° 0 mm 2 m/S 667 mmHg 54%
    01:00 +15°C° 0 mm 2 m/S 667 mmHg 55%
    02:00 +15°C° 0 mm 2 m/S 668 mmHg 57%
    03:00 +14°C° 0 mm 2 m/S 668 mmHg 59%
    04:00 +14°C° 0 mm 1 m/S 668 mmHg 61%
    05:00 +14°C° 0 mm 1 m/S 668 mmHg 59%
    06:00 +15°C° 0 mm 1 m/S 669 mmHg 58%
    07:00 +15°C° 0 mm 1 m/S 670 mmHg 54%
    08:00 +18°C° 0 mm 1 m/S 670 mmHg 51%
    09:00 +18°C° 0 mm 2 m/S 670 mmHg 48%
    10:00 +19°C° 0 mm 2 m/S 670 mmHg 45%
    11:00 +20°C° 0 mm 2 m/S 670 mmHg 41%
    12:00 +21°C° 0 mm 2 m/S 670 mmHg 38%
    13:00 +23°C° 0 mm 2 m/S 670 mmHg 35%
    14:00 +22°C° 0 mm 3 m/S 670 mmHg 36%
    15:00 +22°C° 0 mm 4 m/S 670 mmHg 37%
    16:00 +21°C° 0 mm 5 m/S 670 mmHg 38%
    17:00 +20°C° 0 mm 6 m/S 670 mmHg 42%
    18:00 +18°C° 0 mm 7 m/S 671 mmHg 46%
    19:00 +16°C° 0 mm 8 m/S 671 mmHg 50%
    20:00 +15°C° 0 mm 7 m/S 671 mmHg 52%
    21:00 +14°C° 0 mm 7 m/S 671 mmHg 53%
    22:00 +12°C° 0 mm 7 m/S 672 mmHg 55%
    23:00 +13°C° 0 mm 6 m/S 672 mmHg 55%

    Morgen, 23 April, Montag

    Zeit Temperatur Niederschläge Wind Luftdruck Luftfeuchtigkeit
    00:00 +11°C° 0 mm 6 m/S 672 mmHg 55%
    01:00 +12°C° 0 mm 5 m/S 672 mmHg 56%
    02:00 +10°C° 0 mm 5 m/S 672 mmHg 56%
    03:00 +10°C° 0 mm 5 m/S 672 mmHg 56%
    04:00 +9°C° 0 mm 5 m/S 673 mmHg 55%
    05:00 +9°C° 0 mm 5 m/S 673 mmHg 54%
    06:00 +9°C° 0 mm 5 m/S 673 mmHg 53%
    07:00 +9°C° 0 mm 6 m/S 674 mmHg 51%
    08:00 +10°C° 0 mm 5 m/S 674 mmHg 47%
    09:00 +12°C° 0 mm 5 m/S 674 mmHg 43%
    10:00 +14°C° 0 mm 5 m/S 674 mmHg 38%
    11:00 +14°C° 0 mm 4 m/S 674 mmHg 36%
    12:00 +15°C° 0 mm 4 m/S 674 mmHg 33%
    13:00 +17°C° 0 mm 4 m/S 674 mmHg 31%
    14:00 +17°C° 0 mm 4 m/S 674 mmHg 30%
    15:00 +16°C° 0 mm 5 m/S 673 mmHg 30%
    16:00 +17°C° 0 mm 5 m/S 673 mmHg 29%
    17:00 +16°C° 0 mm 5 m/S 673 mmHg 32%
    18:00 +15°C° 0 mm 6 m/S 674 mmHg 34%
    19:00 +14°C° 0 mm 6 m/S 674 mmHg 37%
    20:00 +13°C° 0 mm 6 m/S 674 mmHg 40%
    21:00 +13°C° 0 mm 5 m/S 674 mmHg 42%
    22:00 +12°C° 0 mm 5 m/S 675 mmHg 45%
    23:00 +11°C° 0 mm 4 m/S 674 mmHg 47%

    übermorgen, 24 April, Dienstag

    Zeit Temperatur Niederschläge Wind Luftdruck Luftfeuchtigkeit
    00:00 +11°C° 0 mm 4 m/S 674 mmHg 49%
    01:00 +11°C° 0 mm 3 m/S 674 mmHg 51%
    02:00 +10°C° 0 mm 3 m/S 674 mmHg 52%
    03:00 +10°C° 0 mm 2 m/S 674 mmHg 53%
    04:00 +10°C° 0 mm 2 m/S 674 mmHg 55%
    05:00 +10°C° 0 mm 2 m/S 674 mmHg 52%
    06:00 +10°C° 0 mm 2 m/S 674 mmHg 50%
    07:00 +12°C° 0 mm 2 m/S 675 mmHg 48%
    08:00 +13°C° 0 mm 1 m/S 675 mmHg 44%
    09:00 +14°C° 0 mm 1 m/S 675 mmHg 41%
    10:00 +15°C° 0 mm 1 m/S 675 mmHg 37%
    11:00 +16°C° 0 mm 1 m/S 674 mmHg 34%
    12:00 +18°C° 0 mm 1 m/S 674 mmHg 31%
    13:00 +19°C° 0 mm 1 m/S 673 mmHg 28%
    14:00 +19°C° 0 mm 1 m/S 673 mmHg 26%
    15:00 +19°C° 0 mm 2 m/S 673 mmHg 25%
    16:00 +19°C° 0 mm 2 m/S 672 mmHg 23%
    17:00 +19°C° 0 mm 2 m/S 672 mmHg 24%
    18:00 +18°C° 0 mm 2 m/S 672 mmHg 25%
    19:00 +18°C° 0 mm 2 m/S 672 mmHg 26%
    20:00 +17°C° 0 mm 2 m/S 672 mmHg 27%
    21:00 +16°C° 0 mm 2 m/S 672 mmHg 29%
    22:00 +16°C° 0 mm 2 m/S 672 mmHg 30%
    23:00 +15°C° 0 mm 2 m/S 671 mmHg 32%

    25 April, Mittwoch

    Zeit Temperatur Niederschläge Wind Luftdruck Luftfeuchtigkeit
    00:00 +14°C° 0 mm 2 m/S 671 mmHg 33%
    01:00 +14°C° 0 mm 2 m/S 671 mmHg 34%
    02:00 +13°C° 0 mm 2 m/S 670 mmHg 36%
    03:00 +13°C° 0 mm 2 m/S 670 mmHg 38%
    04:00 +12°C° 0 mm 2 m/S 670 mmHg 39%
    05:00 +13°C° 0 mm 2 m/S 670 mmHg 37%
    06:00 +14°C° 0 mm 2 m/S 670 mmHg 35%
    07:00 +15°C° 0 mm 2 m/S 670 mmHg 33%
    08:00 +16°C° 0 mm 2 m/S 671 mmHg 29%
    09:00 +17°C° 0 mm 3 m/S 671 mmHg 25%
    10:00 +19°C° 0 mm 3 m/S 671 mmHg 21%
    11:00 +19°C° 0 mm 4 m/S 671 mmHg 20%
    12:00 +20°C° 0 mm 4 m/S 670 mmHg 19%
    13:00 +21°C° 0 mm 4 m/S 670 mmHg 18%
    14:00 +22°C° 0 mm 5 m/S 669 mmHg 18%
    15:00 +22°C° 0 mm 5 m/S 669 mmHg 18%
    16:00 +22°C° 0 mm 5 m/S 668 mmHg 17%
    17:00 +21°C° 0 mm 4 m/S 668 mmHg 19%
    18:00 +21°C° 0 mm 4 m/S 668 mmHg 20%
    19:00 +20°C° 0 mm 3 m/S 668 mmHg 21%
    20:00 +19°C° 0 mm 3 m/S 668 mmHg 22%
    21:00 +19°C° 0 mm 3 m/S 668 mmHg 23%
    22:00 +18°C° 0 mm 3 m/S 668 mmHg 23%
    23:00 +17°C° 0 mm 3 m/S 668 mmHg 23%

    26 April, Donnerstag

    Zeit Temperatur Niederschläge Wind Luftdruck Luftfeuchtigkeit
    00:00 +17°C° 0 mm 3 m/S 668 mmHg 24%
    01:00 +16°C° 0 mm 3 m/S 667 mmHg 24%
    02:00 +16°C° 0 mm 3 m/S 667 mmHg 25%
    03:00 +16°C° 0 mm 3 m/S 667 mmHg 25%
    04:00 +14°C° 0 mm 3 m/S 668 mmHg 26%
    05:00 +16°C° 0 mm 3 m/S 668 mmHg 26%
    06:00 +15°C° 0 mm 4 m/S 669 mmHg 27%
    07:00 +17°C° 0 mm 4 m/S 670 mmHg 27%
    08:00 +19°C° 0 mm 5 m/S 670 mmHg 26%
    09:00 +20°C° 0 mm 5 m/S 671 mmHg 25%
    10:00 +22°C° 0 mm 6 m/S 671 mmHg 24%
    11:00 +23°C° 0 mm 6 m/S 671 mmHg 21%
    12:00 +23°C° 0 mm 5 m/S 671 mmHg 18%
    13:00 +25°C° 0 mm 5 m/S 671 mmHg 15%
    14:00 +25°C° 0 mm 5 m/S 671 mmHg 15%
    15:00 +25°C° 0 mm 5 m/S 671 mmHg 15%
    16:00 +25°C° 0 mm 5 m/S 671 mmHg 14%
    17:00 +23°C° 0 mm 5 m/S 671 mmHg 16%
    18:00 +22°C° 0 mm 4 m/S 672 mmHg 19%
    19:00 +21°C° 0 mm 4 m/S 672 mmHg 21%
    20:00 +20°C° 0 mm 4 m/S 672 mmHg 23%
    21:00 +19°C° 0 mm 3 m/S 672 mmHg 25%
    22:00 +18°C° 0 mm 3 m/S 673 mmHg 27%
    23:00 +17°C° 0 mm 2 m/S 673 mmHg 28%

    27 April, Freitag

    Zeit Temperatur Niederschläge Wind Luftdruck Luftfeuchtigkeit
    00:00 +16°C° 0 mm 2 m/S 672 mmHg 29%
    01:00 +16°C° 0 mm 2 m/S 672 mmHg 30%
    02:00 +15°C° 0 mm 2 m/S 672 mmHg 31%
    03:00 +15°C° 0 mm 2 m/S 672 mmHg 32%
    04:00 +14°C° 0 mm 2 m/S 672 mmHg 33%
    05:00 +15°C° 0 mm 2 m/S 672 mmHg 31%
    06:00 +16°C° 0 mm 2 m/S 672 mmHg 29%
    07:00 +17°C° 0 mm 3 m/S 673 mmHg 28%
    08:00 +18°C° 0 mm 3 m/S 673 mmHg 25%
    09:00 +20°C° 0 mm 3 m/S 673 mmHg 22%
    10:00 +22°C° 0 mm 3 m/S 673 mmHg 20%
    11:00 +24°C° 0 mm 3 m/S 673 mmHg 18%
    12:00 +25°C° 0 mm 3 m/S 672 mmHg 16%
    13:00 +26°C° 0 mm 3 m/S 672 mmHg 14%
    14:00 +27°C° 0 mm 3 m/S 672 mmHg 13%
    15:00 +27°C° 0 mm 3 m/S 671 mmHg 12%
    16:00 +27°C° 0 mm 3 m/S 671 mmHg 12%
    17:00 +26°C° 0 mm 3 m/S 671 mmHg 14%
    18:00 +25°C° 0 mm 2 m/S 670 mmHg 16%
    19:00 +24°C° 0 mm 1 m/S 670 mmHg 18%
    20:00 +23°C° 0 mm 1 m/S 670 mmHg 19%
    21:00 +23°C° 0 mm 2 m/S 670 mmHg 19%
    22:00 +21°C° 0 mm 2 m/S 670 mmHg 20%
    23:00 +20°C° 0 mm 2 m/S 670 mmHg 21%
    Mehr zeigen